Louisville Bowman, KY

8:48 PM EDT on September 19, 2017 (GMT -0400)
Bowman

Weather History for KLOU - April, 2014

Change the Weather History Date:

Tuesday, April 8, 2014

  Actual Average Record
Temperature  
Mean Temperature 54 °F 55 °F  
Max Temperature 63 °F 65 °F 84 °F (1959)
Min Temperature 45 °F 45 °F 24 °F (1972)
Degree Days  
Heating Degree Days 11 11  
Month to date heating degree days 64 98  
Since 1 July heating degree days 4550 4021  
Cooling Degree Days 0 1  
Month to date cooling degree days 4 8  
Year to date cooling degree days 4 12  
Growing Degree Days 4 (Base 50)    
Moisture  
Dew Point 43 °F    
Average Humidity 69    
Maximum Humidity 89    
Minimum Humidity 48    
Precipitation  
Precipitation 0.02 in 0.12 in 1.25 in (1957)
Month to date precipitation 3.81 0.92  
Year to date precipitation 11.76 11.64  
Sea Level Pressure  
Sea Level Pressure 29.76 in    
Wind  
Wind Speed 6 mph (West)    
Max Wind Speed 20 mph    
Max Gust Speed 29 mph    
Visibility 10 miles    
Events Rain    
T = Trace of Precipitation, MM = Missing Value Source: NWS Daily Summary

Daily Weather History Graph

Daily Weather History Graph

Search for Another Location

Airport or City:

Trip Planner

Search our weather history database for the weather conditions in past years. The results will help you decide how hot, cold, wet, or windy it might be!

Date:

Astronomy

Apr. 08, 2014 Rise Set
Actual Time 7:17 AM EDT 8:12 PM EDT
Civil Twilight 6:50 AM EDT 8:39 PM EDT
Nautical Twilight 6:18 AM EDT 9:11 PM EDT
Astronomical Twilight 5:45 AM EDT 9:44 PM EDT
Moon 2:10 PM EDT (4/8) 3:24 AM EDT (4/8)
Length of Visible Light 13h 49m
Length of Day
12h 55m
Waxing Gibbous, 62% of the Moon is Illuminated
Apr 8
Waxing Gibbous
Apr 15
Full
Apr 22
Last Quarter
Apr 29
New
May 6
First Quarter

Hourly Weather History & Observations

Time (EDT) Temp. Windchill Dew Point Humidity Pressure Visibility Wind Dir Wind Speed Gust Speed Precip Events Conditions
12:33 AM 48.0 °F - 42.1 °F 80% 29.70 in 10.0 mi West 11.5 mph - N/A   Overcast
12:46 AM 48.0 °F - 42.1 °F 80% 29.70 in 10.0 mi West 12.7 mph - N/A   Overcast
12:53 AM 48.0 °F - 42.1 °F 80% 29.71 in 10.0 mi West 9.2 mph - N/A   Overcast
1:53 AM 48.0 °F - 41.0 °F 77% 29.72 in 10.0 mi WNW 11.5 mph - N/A   Overcast
2:53 AM 48.0 °F - 42.1 °F 80% 29.73 in 10.0 mi WSW 6.9 mph - N/A   Overcast
3:28 AM 48.0 °F - 42.1 °F 80% 29.74 in 10.0 mi WSW 9.2 mph - N/A   Overcast
3:40 AM 48.0 °F - 42.1 °F 80% 29.74 in 10.0 mi West 11.5 mph 18.4 mph N/A   Overcast
3:53 AM 48.0 °F - 42.1 °F 80% 29.74 in 10.0 mi WSW 8.1 mph - N/A   Overcast
4:53 AM 46.4 °F 43.5 °F 41.0 °F 81% 29.74 in 10.0 mi SW 5.8 mph - N/A   Mostly Cloudy
5:53 AM 45.0 °F 42.6 °F 39.9 °F 82% 29.73 in 10.0 mi SW 4.6 mph - N/A   Clear
6:53 AM 46.0 °F 42.5 °F 39.9 °F 79% 29.75 in 8.0 mi SSW 6.9 mph - N/A   Scattered Clouds
7:53 AM 45.0 °F 42.6 °F 41.0 °F 86% 29.77 in 4.0 mi South 4.6 mph - N/A   Overcast
8:53 AM 46.9 °F - 41.0 °F 80% 29.79 in 6.0 mi SW 5.8 mph - N/A   Haze
9:53 AM 48.0 °F - 42.1 °F 80% 29.79 in 9.0 mi SW 5.8 mph - N/A   Overcast
10:53 AM 50.0 °F - 42.1 °F 74% 29.79 in 10.0 mi WSW 6.9 mph - N/A   Overcast
11:53 AM 53.1 °F - 44.1 °F 71% 29.79 in 10.0 mi Variable 4.6 mph - N/A   Overcast
12:53 PM 55.0 °F - 44.1 °F 67% 29.78 in 10.0 mi South 5.8 mph - N/A   Mostly Cloudy
1:53 PM 59.0 °F - 46.0 °F 62% 29.77 in 10.0 mi WSW 6.9 mph - N/A   Scattered Clouds
2:20 PM 59.0 °F - 44.6 °F 59% 29.77 in 10.0 mi WNW 5.8 mph - N/A   Mostly Cloudy
2:53 PM 60.1 °F - 45.0 °F 57% 29.76 in 10.0 mi Variable 3.5 mph - N/A   Mostly Cloudy
3:10 PM 61.0 °F - 46.0 °F 58% 29.75 in 10.0 mi NW 5.8 mph - N/A   Scattered Clouds
3:53 PM 61.0 °F - 45.0 °F 56% 29.73 in 10.0 mi Calm Calm - N/A   Scattered Clouds
4:53 PM 62.1 °F - 43.0 °F 50% 29.72 in 10.0 mi WSW 5.8 mph - N/A   Partly Cloudy
5:35 PM 54.0 °F - 46.0 °F 75% 29.74 in 6.0 mi North 8.1 mph 21.9 mph 0.01 in Rain Light Rain
5:53 PM 55.0 °F - 46.0 °F 72% 29.75 in 10.0 mi NNE 9.2 mph - 0.01 in   Overcast
6:53 PM 55.9 °F - 46.0 °F 69% 29.78 in 10.0 mi Calm Calm - 0.01 in Rain Light Rain
7:53 PM 55.9 °F - 44.1 °F 64% 29.79 in 10.0 mi Calm Calm - 0.00 in   Mostly Cloudy
8:53 PM 54.0 °F - 46.0 °F 75% 29.82 in 10.0 mi NW 4.6 mph - N/A   Clear
9:53 PM 54.0 °F - 45.0 °F 72% 29.86 in 10.0 mi WNW 11.5 mph - N/A   Scattered Clouds
10:53 PM 54.0 °F - 44.1 °F 69% 29.86 in 10.0 mi NNW 4.6 mph - N/A   Overcast
11:53 PM 50.0 °F - 43.0 °F 77% 29.88 in 10.0 mi NW 5.8 mph - N/A   Clear